Probability
2 3 4 5 6 6 4 4 4 3 3 3 3 3 2 1 0 0 0 0 0 0 1 2 2 2 3 3 2 1 0 1 2 2 1 1 2 2 3 4 4 3 2
2 3 3 4 6 6 4 4 4 3 4 4 4 2 1 0 0 0 0 0 0 0 0 1 1 1 2 2 2 2 1 1 2 3 2 2 2 2 2 3 3 3 3
2 3 3 4 5 5 4 4 3 4 5 5 5 2 0 0 0 0 0 0 0 0 0 0 0 0 1 1 2 3 3 3 3 3 3 3 3 3 3 3 3 3 3
1 3 4 5 5 4 3 3 3 4 5 7 6 4 1 0 0 0 0 0 0 0 0 0 0 0 0 0 1 3 3 3 3 3 3 3 3 3 3 3 3 3 3
2 4 5 6 6 4 4 4 6 6 7 8 8 7 3 1 1 0 1 1 1 1 1 0 0 0 0 0 1 2 3 3 3 3 3 3 3 3 3 3 3 2 2
1 3 5 6 6 5 5 7 9 9 8 8 8 8 5 3 2 2 3 3 3 3 3 2 1 0 0 0 0 1 1 3 3 3 3 3 3 3 3 3 1 1 1
1 3 4 6 7 6 7 9 10 10 9 8 7 7 6 5 4 4 5 4 4 5 5 5 3 1 1 1 0 0 1 2 2 2 2 2 2 2 2 2 1 0 0
1 2 3 4 6 7 10 12 12 10 10 9 8 6 6 6 6 6 6 5 5 5 6 6 4 3 2 2 1 0 0 1 1 1 1 1 1 1 1 1 0 0 0
2 3 4 4 5 7 10 11 11 10 9 11 10 8 7 7 8 8 7 6 6 6 6 5 4 3 3 3 2 1 1 1 1 1 1 1 1 1 1 1 1 2 1
3 4 5 5 6 8 9 9 8 7 7 10 13 12 10 9 10 9 8 8 8 8 7 5 4 4 3 3 3 3 2 2 2 2 2 2 2 2 2 2 3 3 3
3 3 5 6 7 8 8 7 7 6 5 7 12 14 12 10 10 9 8 9 10 9 8 6 6 5 5 4 4 3 3 4 3 3 3 3 4 4 4 4 3 3 3
2 2 3 4 5 6 7 7 7 6 5 5 9 13 13 12 11 9 8 8 10 11 10 8 7 7 7 7 6 5 5 5 4 4 4 4 5 6 6 5 5 5 5
2 2 2 3 4 5 6 6 6 6 6 6 7 10 12 13 12 11 9 8 9 11 12 10 9 8 8 8 8 8 8 7 6 6 6 6 6 6 6 6 6 7 8
3 4 5 5 4 5 6 6 5 5 5 5 5 8 11 13 13 13 12 10 10 12 12 11 10 9 9 9 8 8 8 8 7 7 7 7 6 6 6 6 7 8 9
3 4 5 6 5 5 5 5 5 4 4 4 4 6 10 13 12 12 12 12 12 12 12 11 10 10 10 9 8 7 7 7 7 8 7 6 6 5 4 4 5 6 6
2 3 4 5 6 6 5 4 4 4 4 4 4 6 9 11 12 11 12 12 12 12 12 11 11 11 10 8 6 6 6 6 6 6 6 4 4 4 4 3 3 3 4
1 3 4 4 5 5 5 4 3 4 4 5 6 6 8 11 12 11 11 11 10 10 10 11 11 11 9 6 4 4 5 5 5 5 5 4 4 4 4 4 3 3 4
2 3 4 4 3 4 4 3 4 5 5 4 5 6 9 11 12 11 10 10 9 8 9 9 10 10 9 5 3 3 3 4 5 5 6 6 5 5 5 5 5 5 5
3 3 4 3 3 3 3 2 3 5 5 4 4 6 8 10 11 11 10 9 8 7 7 8 9 9 7 5 3 3 4 5 5 6 6 6 6 5 5 6 6 6 6
3 3 3 3 3 3 2 1 2 3 4 4 4 6 7 9 10 10 9 9 8 7 7 7 7 7 6 4 3 3 5 6 6 7 6 4 4 3 3 5 6 6 6
3 3 3 3 3 2 1 0 1 2 3 4 6 6 7 7 8 8 9 9 9 8 8 7 7 7 6 5 3 2 4 6 7 7 6 4 2 1 1 2 4 5 5
3 3 3 3 3 1 0 0 0 1 3 4 5 6 6 7 7 8 8 9 10 9 9 9 9 8 7 6 3 2 3 5 6 7 6 3 1 0 0 0 1 2 2
3 3 3 3 2 1 0 0 0 1 4 5 4 4 5 7 8 8 9 10 10 10 10 10 9 8 7 6 3 1 1 2 4 6 4 2 0 0 0 0 0 0 1
3 3 2 2 1 0 0 0 1 2 4 4 4 3 4 5 6 6 8 9 9 9 9 10 9 8 7 6 4 2 1 0 1 2 1 0 0 0 0 0 0 1 2
2 1 1 1 0 0 0 0 1 2 2 2 2 2 3 4 3 3 5 6 7 7 8 9 9 8 7 6 5 2 1 0 0 0 0 0 0 0 0 0 0 1 2
1 0 0 0 0 0 0 0 0 1 1 1 1 2 3 3 2 2 3 3 4 6 6 7 8 7 7 6 4 2 0 0 0 0 0 0 0 0 0 0 0 0 1
Wind_Speed
4 4 5 6 5 4 4 4 4 3 3 2 2 1 1 1 1 1 1 1 1 0 1 0 1 1 1 1 1 1 1 1 1 1 2 2 2 1 1 1 1 1 0
3 4 5 5 6 5 5 4 4 4 3 2 2 1 1 0 1 1 1 1 1 0 1 1 0 0 0 0 0 1 1 0 1 1 1 1 2 2 2 1 0 0 1
5 4 4 5 5 5 6 5 4 3 3 2 2 2 2 1 1 1 1 2 1 1 0 1 1 1 1 1 1 1 2 1 0 1 2 2 1 1 1 1 1 1 1
5 5 4 4 5 5 4 4 4 4 3 3 3 3 2 2 2 1 2 2 1 1 1 1 1 1 1 1 1 1 1 2 1 0 0 1 2 1 1 1 1 1 0
5 5 5 5 5 5 4 4 4 3 3 3 4 3 2 2 1 1 1 2 2 1 1 1 1 1 1 1 1 1 1 1 2 1 1 1 1 1 2 1 1 1 1
4 4 3 3 3 3 3 4 4 3 3 3 3 3 3 2 1 1 1 2 2 2 1 1 1 1 1 2 2 2 1 1 1 1 1 2 2 2 2 2 1 1 1
3 3 3 3 3 3 3 3 4 3 3 3 3 3 3 3 3 2 2 1 1 2 2 1 1 1 1 1 1 1 1 1 1 1 1 1 1 2 2 2 1 1 1
3 4 4 3 3 3 3 3 4 3 3 3 3 2 3 2 2 2 2 2 2 2 2 1 1 1 1 1 1 1 1 1 1 1 1 1 1 1 2 2 2 1 1
3 3 3 3 3 3 3 3 3 3 2 2 2 2 1 2 2 2 2 2 2 1 1 1 1 1 1 1 2 1 1 1 1 1 1 1 0 1 1 2 2 2 1
2 2 2 2 2 2 2 2 3 3 2 1 2 2 2 2 2 1 2 1 1 1 0 0 1 1 1 1 2 1 1 1 1 1 2 1 0 1 1 1 1 2 2
3 2 2 2 2 2 2 2 1 1 1 1 1 1 1 1 1 1 2 1 1 1 1 1 1 1 1 2 2 2 2 2 1 1 2 1 1 1 1 1 1 1 1
2 2 2 2 2 1 1 1 1 1 1 1 1 2 1 1 1 1 1 1 1 1 1 1 1 1 1 2 3 3 2 2 2 1 1 1 1 1 1 1 1 1 1
2 2 2 2 1 1 1 1 0 1 0 1 1 1 1 1 1 1 1 1 1 1 1 1 1 1 1 2 2 2 2 2 2 2 2 2 2 1 1 1 1 1 1
2 2 1 1 1 1 1 1 0 0 0 0 0 1 1 1 1 1 0 1 1 1 1 1 1 1 1 2 2 2 2 2 1 2 2 2 2 2 2 1 1 1 1
1 1 1 1 0 1 1 1 0 0 0 1 1 1 2 1 0 0 0 0 1 1 1 1 1 0 0 1 2 2 2 2 1 1 1 2 2 3 2 2 2 2 2
2 1 1 1 0 0 0 0 0 0 0 1 1 1 0 0 1 1 1 1 1 0 0 1 1 0 0 0 1 2 2 1 1 1 1 1 1 2 2 2 3 4 4
2 1 1 1 1 1 1 1 1 1 1 0 0 0 0 0 1 1 1 1 1 0 0 0 1 1 1 1 1 3 2 2 1 2 1 1 1 1 1 1 1 2 3
2 1 1 1 1 1 1 1 1 1 1 0 0 0 0 0 0 1 1 1 0 0 1 0 0 1 1 1 1 2 2 1 1 1 2 2 1 1 2 2 1 1 1
2 2 2 1 0 1 0 1 0 0 0 0 1 1 0 1 1 1 0 0 0 0 0 0 0 1 2 1 2 2 1 1 1 1 1 2 2 2 3 2 2 1 2
1 1 1 1 1 1 0 1 0 0 1 1 1 1 1 1 2 2 1 1 0 0 0 1 1 1 2 2 2 3 2 1 1 1 1 2 2 2 2 3 3 3 3
2 1 2 2 2 1 1 1 0 2 2 1 1 1 0 2 2 1 1 1 0 0 0 1 1 1 2 2 2 3 2 3 2 2 2 2 2 2 2 3 3 5 3
1 2 2 1 1 1 1 0 2 3 2 0 0 1 1 1 1 1 1 1 1 0 0 1 2 2 2 1 2 2 3 3 2 3 2 2 2 3 3 3 4 4 3
2 1 2 1 1 1 2 2 3 2 1 1 1 1 1 1 1 1 1 0 0 1 1 1 2 2 2 2 2 2 3 3 2 2 3 3 3 2 2 2 3 3 2
2 1 2 2 2 2 2 3 2 1 1 1 1 1 1 0 0 1 1 1 1 1 2 2 2 2 2 2 1 1 1 1 1 1 1 1 1 1 2 1 1 1 2
2 2 3 3 3 2 2 2 1 1 1 1 1 1 1 1 1 1 1 2 3 3 3 3 3 3 3 3 3 2 1 1 1 1 0 0 0 0 1 1 1 1 1
2 2 2 3 2 2 2 2 1 1 2 1 1 1 1 1 1 1 1 2 2 2 3 4 4 3 4 3 2 2 2 2 3 2 1 1 1 2 2 1 1 1 1
Wind_Direction
182 164 167 161 155 155 158 167 167 162 145 137 141 141 199 278 315 297 299 312 332 31 97 68 46 78 124 177 168 140 117 116 122 78 23 6 20 29 22 20 35 16 4
162 165 163 162 167 173 174 174 177 173 168 170 167 165 160 214 251 298 328 322 317 279 156 122 144 152 135 106 177 159 154 161 118 128 92 4 359 5 22 24 59 20 38
185 183 174 177 174 180 184 183 179 172 167 145 111 86 64 36 5 321 306 300 293 277 198 170 168 184 187 205 227 207 179 187 170 144 149 155 226 325 354 20 40 37 57
189 186 179 179 187 192 182 178 169 167 168 155 149 153 170 201 228 242 260 289 293 274 232 188 179 182 193 207 235 199 198 178 200 160 138 165 165 160 346 355 22 30 44
185 187 189 187 187 181 174 172 160 167 167 166 166 165 188 217 247 281 293 296 300 290 266 192 181 183 200 206 218 204 200 186 182 174 156 132 105 144 160 248 330 355 353
182 181 172 159 164 162 159 160 156 164 160 163 167 174 186 192 198 264 281 291 295 293 290 229 191 197 214 208 207 202 187 181 159 151 146 159 163 169 163 183 232 294 315
165 160 146 152 158 162 164 161 159 166 167 170 182 192 195 193 203 221 230 256 281 279 280 258 206 202 217 199 175 164 176 168 154 159 171 171 174 157 153 155 182 239 313
164 164 163 161 164 169 166 168 165 165 178 181 195 200 198 196 213 216 219 225 239 252 257 225 200 194 186 161 136 137 175 136 154 165 156 149 176 161 168 166 159 169 317
166 162 158 158 158 162 164 165 165 170 193 201 197 192 197 199 209 217 220 230 237 234 236 220 196 189 179 158 145 143 153 115 123 146 136 145 183 166 171 173 176 170 200
151 145 152 148 146 159 159 148 163 185 206 202 201 197 207 222 221 203 213 225 226 212 170 172 173 162 147 148 144 143 153 125 119 124 106 89 88 104 121 162 167 176 182
160 162 162 156 139 130 148 147 154 171 213 232 212 199 210 213 199 222 228 210 192 178 176 199 163 153 154 149 141 155 148 135 114 93 103 88 87 106 107 110 114 139 169
146 137 132 129 118 120 125 126 158 187 220 231 215 216 219 197 192 228 235 186 177 178 182 172 147 150 152 155 159 168 167 163 162 165 143 158 117 112 120 122 139 158 174
111 97 103 113 112 99 93 83 172 227 239 199 198 212 218 211 221 236 236 192 171 142 127 132 149 166 170 165 173 172 176 181 187 191 184 188 144 136 146 149 166 168 157
130 121 109 109 109 96 108 98 336 245 193 144 162 250 253 242 252 257 207 174 159 144 145 152 166 178 174 178 182 172 174 179 185 192 195 196 183 185 184 180 184 160 138
138 154 156 156 96 53 67 91 90 273 176 156 208 249 263 267 317 8 165 161 155 173 166 150 154 149 159 196 179 175 178 180 188 206 215 208 187 185 186 185 175 161 156
202 195 169 146 152 135 99 136 72 360 152 189 224 228 220 171 159 176 151 120 93 47 114 143 152 149 252 181 170 168 164 174 187 212 236 231 210 175 176 179 173 171 176
210 188 188 234 268 266 236 222 202 125 98 127 236 163 137 179 199 172 119 116 119 117 47 74 142 197 247 217 196 182 162 164 199 223 232 239 234 184 179 176 169 180 188
202 208 207 240 295 307 309 298 81 107 123 65 343 344 122 170 129 106 114 136 144 179 222 79 264 257 279 229 192 153 143 150 205 227 222 216 243 211 179 170 165 215 231
195 206 208 194 224 287 320 55 52 99 107 234 271 289 211 173 142 141 185 200 153 322 278 229 238 266 281 249 189 155 144 164 255 266 238 213 230 234 177 170 188 233 262
181 170 143 125 162 258 100 101 193 153 239 243 251 265 228 192 199 209 211 205 178 226 268 305 279 260 272 264 214 171 159 189 234 268 271 250 235 241 193 197 203 227 247
202 159 144 172 215 211 127 117 271 257 255 242 270 309 270 214 204 208 194 160 154 79 32 320 314 300 278 272 230 188 185 201 216 234 249 256 234 228 214 205 215 228 231
190 165 159 227 267 162 150 198 267 271 274 227 241 287 278 257 209 176 200 142 137 114 339 331 321 312 302 282 249 215 213 209 206 233 248 257 250 242 233 219 228 233 226
213 184 167 207 274 225 190 215 261 279 278 244 247 264 273 283 214 185 200 206 173 194 263 276 287 299 313 309 287 251 233 229 223 239 243 247 253 256 247 234 237 227 210
218 189 170 200 245 255 242 235 246 232 217 235 252 234 186 227 309 236 211 204 215 223 236 244 255 273 288 290 290 277 243 230 230 245 256 276 304 292 298 303 273 230 208
218 191 198 217 235 246 261 262 238 196 207 237 252 245 215 214 237 270 250 225 227 217 220 233 233 235 256 265 256 237 237 219 208 169 125 108 26 346 321 310 304 263 209
218 207 217 233 252 254 268 277 251 207 195 214 234 235 227 227 222 247 312 312 261 255 240 237 230 236 236 247 239 235 241 218 181 161 190 228 241 245 253 261 284 279 257